Simultaneous Nadir Overpasses (SNOs) Predictions

Prediction of SNOs between FY3D and AQUA Satellite Orbit:

Table of predicted SNOs for the next 14.0 days since TLE Epoch: 9/9/2023
Index Date (FY3D) Time (FY3D) Lat,Lon (FY3D) SZA (FY3D ) Date (AQUA) Time (AQUA) Lat,Lon (AQUA) SZA (AQUA ) Distance(km) Time Diff (sec)
1 09/09/2023 15:33:16 -78.79, 108.03 105.96 09/09/2023 15:33:34 -78.80, 107.93 105.95 2.50 18
2 09/09/2023 16:23:55 78.53, -83.01 73.72 09/09/2023 16:22:52 78.53, -82.92 73.72 1.93 63
3 09/12/2023 04:28:12 -79.08, -87.69 104.60 09/12/2023 04:29:24 -79.08, -87.67 104.63 0.56 72
4 09/12/2023 05:18:47 78.70, 82.29 74.88 09/12/2023 05:18:39 78.70, 82.24 74.89 1.06 8
5 09/14/2023 18:13:41 78.90,-112.73 76.11 09/14/2023 18:14:27 78.90,-112.84 76.11 2.51 46
6 09/14/2023 19:04:18 -78.58, 56.67 104.31 09/14/2023 19:03:43 -78.59, 56.60 104.29 1.51 35
7 09/17/2023 07:59:13 -78.82,-138.56 103.03 09/17/2023 07:59:31 -78.83,-138.65 103.02 2.22 18
8 09/17/2023 08:49:48 78.43, 31.25 76.47 09/17/2023 08:48:46 78.44, 31.14 76.50 2.79 62
9 09/19/2023 20:54:08 -79.06, 26.11 101.74 09/19/2023 20:55:18 -79.06, 26.05 101.75 1.41 70
10 09/19/2023 21:44:44 78.72,-164.24 77.82 09/19/2023 21:44:34 78.73,-164.31 77.83 1.69 10
11 09/22/2023 10:39:40 79.01, 0.14 79.18 09/22/2023 10:40:21 79.00, 0.18 79.16 0.95 41



Historial Predications of SNOs between FY3D and AQUA
